Iron Mountain, MI

6:37 PM CDT on August 28, 2016 (GMT -0500)
Ford

Weather History for KIMT - November, 2012

Change the Weather History Date:

Friday, November 2, 2012

  Actual Average Record
Temperature  
Mean Temperature 34 °F -  
Max Temperature 37 °F 49 °F 70 °F (1990)
Min Temperature 30 °F 31 °F 6 °F (1951)
Degree Days  
Heating Degree Days 32    
Moisture  
Dew Point 22 °F    
Average Humidity 65    
Maximum Humidity 73    
Minimum Humidity 54    
Precipitation  
Precipitation 0.00 in - - ()
Sea Level Pressure  
Sea Level Pressure 30.10 in    
Wind  
Wind Speed 11 mph (NNW)    
Max Wind Speed 21 mph    
Max Gust Speed 28 mph    
Visibility 10 miles    
Events      
Averages and records for this station are not official NWS values.
T = Trace of Precipitation, MM = Missing Value Source: NWS Daily Summary

Daily Weather History Graph

Daily Weather History Graph

Search for Another Location

Airport or City:

Trip Planner

Search our weather history database for the weather conditions in past years. The results will help you decide how hot, cold, wet, or windy it might be!

Date:

Astronomy

Nov. 02, 2012 Rise Set
Actual Time 7:34 AM CDT 5:36 PM CDT
Civil Twilight 7:03 AM CDT 6:07 PM CDT
Nautical Twilight 6:28 AM CDT 6:43 PM CDT
Astronomical Twilight 5:53 AM CDT 7:17 PM CDT
Moon 8:17 PM CDT (11/2) 11:01 AM CDT (11/2)
Length of Visible Light 11h 04m
Length of Day
10h 01m
Waning Gibbous, 87% of the Moon is Illuminated
Nov 2
Waning Gibbous
Nov 6
Last Quarter
Nov 13
New
Nov 20
First Quarter
Nov 28
Full

Hourly Weather History & Observations

Time (CDT) Temp. Windchill Dew Point Humidity Pressure Visibility Wind Dir Wind Speed Gust Speed Precip Events Conditions
12:54 AM 34.0 °F 26.0 °F 26.1 °F 73% 29.95 in 10.0 mi NW 10.4 mph - N/A   Overcast
1:54 AM 34.0 °F 26.0 °F 25.0 °F 70% 29.97 in 10.0 mi NNW 10.4 mph - N/A   Overcast
2:11 AM 33.8 °F 24.3 °F 24.8 °F 70% 29.94 in 10.0 mi NNW 13.8 mph - N/A   Overcast
2:54 AM 34.0 °F 26.0 °F 25.0 °F 70% 29.99 in 10.0 mi NW 10.4 mph - N/A   Overcast
3:54 AM 34.0 °F 24.2 °F 24.1 °F 67% 30.00 in 10.0 mi NNW 15.0 mph - N/A   Overcast
4:54 AM 33.1 °F 21.2 °F 23.0 °F 66% 30.01 in 10.0 mi NNW 20.7 mph 27.6 mph N/A   Overcast
5:54 AM 32.0 °F 22.1 °F 23.0 °F 69% 30.03 in 10.0 mi NNW 13.8 mph 19.6 mph N/A   Overcast
6:54 AM 32.0 °F 24.2 °F 23.0 °F 69% 30.04 in 10.0 mi NNW 9.2 mph - N/A   Overcast
7:54 AM 32.0 °F 23.0 °F 21.9 °F 66% 30.06 in 10.0 mi North 11.5 mph - N/A   Overcast
8:54 AM 32.0 °F 22.1 °F 21.9 °F 66% 30.09 in 10.0 mi NNW 13.8 mph - N/A   Overcast
9:54 AM 33.1 °F 23.9 °F 21.9 °F 64% 30.11 in 10.0 mi NNW 12.7 mph - N/A   Overcast
10:46 AM 33.8 °F 25.3 °F 21.2 °F 60% 30.07 in 10.0 mi NNW 11.5 mph - N/A   Scattered Clouds
10:54 AM 32.0 °F 22.5 °F 21.9 °F 66% 30.12 in 10.0 mi North 12.7 mph - N/A   Partly Cloudy
11:36 AM 35.6 °F 27.5 °F 21.2 °F 56% 30.09 in 10.0 mi North 11.5 mph 17.3 mph N/A   Mostly Cloudy
11:54 AM 35.1 °F 26.4 °F 21.9 °F 59% 30.13 in 10.0 mi North 12.7 mph - N/A   Mostly Cloudy
12:54 PM 35.1 °F 30.1 °F 21.9 °F 59% 30.14 in 10.0 mi NW 5.8 mph - N/A   Overcast
1:43 PM 35.6 °F 26.6 °F 21.2 °F 56% 30.10 in 10.0 mi North 13.8 mph - N/A   Scattered Clouds
1:54 PM 36.0 °F 29.0 °F 21.0 °F 55% 30.14 in 10.0 mi NNW 9.2 mph - N/A   Partly Cloudy
2:54 PM 37.0 °F 28.5 °F 21.9 °F 54% 30.13 in 10.0 mi North 13.8 mph 18.4 mph N/A   Partly Cloudy
3:54 PM 35.1 °F 29.3 °F 21.0 °F 57% 30.15 in 10.0 mi North 6.9 mph - N/A   Scattered Clouds
4:54 PM 34.0 °F 26.6 °F 21.9 °F 61% 30.16 in 10.0 mi NNE 9.2 mph - N/A   Mostly Cloudy
5:54 PM 33.1 °F 26.1 °F 21.9 °F 64% 30.17 in 10.0 mi North 8.1 mph - N/A   Overcast
6:54 PM 32.0 °F 24.2 °F 21.9 °F 66% 30.19 in 10.0 mi NNW 9.2 mph - N/A   Overcast
7:54 PM 30.0 °F 21.7 °F 21.0 °F 69% 30.19 in 10.0 mi North 9.2 mph - N/A   Mostly Cloudy
8:54 PM 30.9 °F 22.2 °F 21.9 °F 69% 30.20 in 10.0 mi North 10.4 mph - N/A   Overcast
9:54 PM 30.9 °F 24.3 °F 21.9 °F 69% 30.20 in 10.0 mi North 6.9 mph - N/A   Overcast
10:54 PM 30.9 °F 25.2 °F 23.0 °F 72% 30.21 in 10.0 mi NNE 5.8 mph - N/A   Overcast
11:54 PM 32.0 °F 28.7 °F 23.0 °F 69% 30.22 in 10.0 mi North 3.5 mph - N/A   Overcast